Location: Unnamed
(25.2826°S, 57.6099°W)
Time: 00:22:20
(UTC-04:00)

Envisat - Pass Details

Date: 26 January 2026
Orbit: 761 x 763 km, 98.4° (Epoch: 18 February)

Event Time Altitude Azimuth Distance (km) Brightness Sun altitude
Exits shadow 01:29:04 16° 169° (S) 1,941 5.6 -41.3°
Drops below altitude 10° 01:30:06 10° 175° (S) 2,315 6.1 -41.2°
Sets 01:32:31 0° 182° (S) 3,248 6.9 -40.9°
